Tracking 27086 objects as of 22-Mar-2023
HD Live streaming from Space Station
objects crossing your sky now

STARLINK-4415

Track STARLINK-4415 now!
10-day predictions
STARLINK-4415 is classified as:


NORAD ID: 53465
Int'l Code: 2022-099A
Perigee: 568.4 km
Apogee: 571.9 km
Inclination: 97.7 °
Period: 95.9 minutes
Semi major axis: 6941 km
RCS: Unknown
Launch date: August 12, 2022
Source: United States (US)
Launch site: AIR FORCE WESTERN TEST RANGE (AFWTR)
Your satellite tracking list
Your tracking list is empty




NASA's NSSDC Master Catalog

Two Line Element Set (TLE):
1 53465U 22099A   23081.29336879  .00002581  00000-0  20543-3 0  9999
2 53465  97.6576 203.6176 0002490 261.0650  99.0292 15.01263387 33682
Source of the keplerian elements: AFSPC